Weather History for Cedar City, UT

Change the Weather History Date:

Sunday, December 9, 2012

  Actual Average Record
Temperature  
Mean Temperature 23 °F 29 °F  
Max Temperature 34 °F 42 °F 65 °F (1981)
Min Temperature 12 °F 16 °F -16 °F (1951)
Degree Days  
Heating Degree Days 42 36  
Month to date heating degree days 223 313  
Since 1 July heating degree days 1359 1755  
Cooling Degree Days 0 0  
Month to date cooling degree days 0 0  
Year to date cooling degree days 715 588  
Moisture  
Dew Point 12 °F    
Average Humidity 61    
Maximum Humidity 84    
Minimum Humidity 38    
Precipitation  
Precipitation T in 0.03 in 0.22 in (1965)
Month to date precipitation T 0.23  
Year to date precipitation 11.45 10.70  
Sea Level Pressure  
Sea Level Pressure 30.23 in    
Wind  
Wind Speed 9 mph (NNE)    
Max Wind Speed 22 mph    
Max Gust Speed 30 mph    
Visibility 10 miles    
Events      
T = Trace of Precipitation, MM = Missing Value Source: NWS Daily Summary

Daily Weather History Graph

Daily Weather History Graph

Search for Another Location

Airport:

Trip Planner

Search our weather history database for the weather conditions in past years. The results will help you decide how hot, cold, wet, or windy it might be!

Date:

Astronomy

Dec. 09, 2012 Rise Set
Actual Time 7:36 AM MST 5:13 PM MST
Civil Twilight 7:07 AM MST 5:42 PM MST
Nautical Twilight 6:34 AM MST 6:15 PM MST
Astronomical Twilight 6:02 AM MST 6:47 PM MST
Moon 3:17 AM MST (12/9) 2:20 PM MST (12/9)
Length of Visible Light 10h 35m
Length of Day
9h 37m
Waning Crescent, 18% of the Moon is Illuminated
Dec 9
Waning Crescent
Dec 13
New
Dec 19
First Quarter
Dec 28
Full
Jan 4
Last Quarter

Hourly Weather History & Observations

Time (MST) Temp. Windchill Dew Point Humidity Pressure Visibility Wind Dir Wind Speed Gust Speed Precip Events Conditions
12:53 AM 21.9 °F 17.2 °F 15.1 °F 75% 30.02 in 10.0 mi SW 3.5 mph - N/A   Clear
1:53 AM 21.0 °F 13.4 °F 15.1 °F 78% 30.04 in 10.0 mi South 5.8 mph - N/A   Clear
2:53 AM 19.9 °F 11.1 °F 14.0 °F 78% 30.02 in 10.0 mi South 6.9 mph - N/A   Clear
3:53 AM 19.0 °F 12.3 °F 12.9 °F 77% 30.01 in 10.0 mi South 4.6 mph - N/A   Clear
4:53 AM 19.9 °F 11.1 °F 14.0 °F 78% 30.04 in 10.0 mi North 6.9 mph - N/A   Clear
5:53 AM 12.9 °F 6.9 °F 10.0 °F 88% 30.09 in 10.0 mi WNW 3.5 mph - N/A   Clear
6:53 AM 14.0 °F - 10.0 °F 84% 30.13 in 10.0 mi Calm Calm - N/A   Partly Cloudy
7:53 AM 18.0 °F - 12.9 °F 81% 30.17 in 10.0 mi Calm Calm - N/A   Mostly Cloudy
8:53 AM 21.9 °F - 16.0 °F 78% 30.21 in 10.0 mi Calm Calm - N/A   Overcast
9:53 AM 27.0 °F 18.7 °F 19.9 °F 75% 30.23 in 10.0 mi North 8.1 mph - 0.00 in   Overcast
10:53 AM 32.0 °F 21.6 °F 16.0 °F 52% 30.23 in 10.0 mi NNE 15.0 mph 21.9 mph N/A   Partly Cloudy
11:53 AM 33.1 °F 22.2 °F 15.1 °F 48% 30.23 in 10.0 mi North 17.3 mph 24.2 mph N/A   Overcast
12:53 PM 33.1 °F 23.0 °F 15.1 °F 48% 30.25 in 10.0 mi North 15.0 mph 29.9 mph N/A   Overcast
1:53 PM 33.1 °F 21.9 °F 12.9 °F 43% 30.25 in 10.0 mi NNE 18.4 mph 26.5 mph N/A   Partly Cloudy
2:53 PM 33.1 °F 22.6 °F 12.0 °F 42% 30.26 in 10.0 mi NNE 16.1 mph 23.0 mph N/A   Partly Cloudy
3:53 PM 30.9 °F 19.1 °F 10.9 °F 43% 30.31 in 10.0 mi North 18.4 mph 26.5 mph N/A   Scattered Clouds
4:53 PM 28.0 °F 16.5 °F 10.9 °F 49% 30.32 in 10.0 mi NNE 15.0 mph 25.3 mph N/A   Clear
5:53 PM 25.0 °F 16.3 °F 10.0 °F 53% 30.37 in 10.0 mi NNE 8.1 mph - N/A   Clear
6:53 PM 24.1 °F 13.1 °F 10.0 °F 55% 30.39 in 10.0 mi NE 11.5 mph - N/A   Clear
7:53 PM 24.1 °F 13.7 °F 9.0 °F 53% 30.40 in 10.0 mi NNE 10.4 mph - N/A   Clear
8:53 PM 23.0 °F 13.1 °F 9.0 °F 55% 30.37 in 10.0 mi NNE 9.2 mph - N/A   Clear
9:53 PM 21.9 °F 11.0 °F 9.0 °F 58% 30.35 in 10.0 mi North 10.4 mph 18.4 mph N/A   Clear
10:53 PM 16.0 °F 6.3 °F 8.1 °F 71% 30.36 in 10.0 mi NNW 6.9 mph - N/A   Clear
11:53 PM 16.0 °F - 7.0 °F 68% 30.36 in 10.0 mi Calm Calm - N/A   Clear